Theta_e
345 352 364 365 362 363 364 365 365 363 365 364 366 364 365 362 364 366 367 366 365 365 365 363 364 363 363 362 363 364 364 365 365 363 362 361 361 362 364 362 360 355 361
348 355 366 364 363 363 366 365 363 365 365 365 367 364 365 364 364 365 365 365 364 365 363 363 363 363 362 361 362 364 364 363 365 363 362 362 360 362 362 359 360 358 360
348 355 361 366 365 365 365 366 366 363 363 363 364 366 364 364 365 365 365 364 364 365 361 361 362 363 362 363 362 361 362 360 360 361 360 351 356 362 361 361 360 360 360
350 353 358 366 366 362 364 367 366 365 364 364 364 364 365 364 364 365 363 364 363 364 361 361 359 361 362 362 361 360 360 358 359 355 352 350 354 362 361 360 361 360 361
351 352 357 366 365 362 363 364 365 365 364 362 362 363 363 364 363 364 365 363 363 364 363 362 361 359 358 357 357 357 357 358 356 350 350 348 345 358 360 360 360 361 361
350 354 362 364 362 362 363 363 363 363 364 362 362 363 362 363 363 363 362 364 360 359 358 361 361 361 361 359 358 357 356 357 361 351 349 356 349 360 361 361 360 361 361
349 354 358 365 365 364 363 363 363 363 363 364 363 363 363 363 363 363 363 361 360 359 359 358 358 359 358 358 358 357 358 360 349 346 341 353 355 363 360 360 360 359 359
349 352 355 362 364 364 362 362 363 363 361 363 363 363 363 362 362 363 361 362 360 361 360 360 358 357 356 355 356 357 358 360 353 347 347 353 361 362 359 359 359 359 359
349 351 354 355 358 363 365 362 362 362 361 361 363 362 362 360 361 361 361 361 360 359 359 358 358 357 355 354 353 356 357 361 349 349 353 355 362 361 358 358 359 358 359
348 349 351 354 356 354 355 363 362 361 361 361 360 360 360 360 360 359 363 362 360 359 358 357 355 355 355 355 356 355 358 359 352 350 352 353 361 357 355 356 358 359 359
344 344 347 350 351 350 353 357 360 360 360 359 358 359 360 352 350 354 359 360 359 359 359 359 359 360 358 358 359 358 355 348 347 351 348 359 359 357 357 356 356 358 358
337 340 347 348 349 351 356 354 353 354 353 352 353 351 353 351 351 356 358 363 361 360 362 362 361 360 360 347 348 353 353 351 352 351 346 356 357 357 357 358 357 355 357
338 341 344 346 348 349 351 353 354 353 352 353 351 353 355 354 353 356 354 354 353 358 355 358 357 357 351 350 350 349 352 352 350 350 348 356 354 350 351 353 355 356 355
338 340 342 346 349 350 353 352 354 353 353 352 353 354 354 353 351 351 353 354 350 349 345 350 353 352 354 352 350 353 350 351 347 349 351 354 355 353 352 350 351 353 355
339 341 342 347 350 351 352 353 351 353 352 350 354 351 353 352 351 348 350 353 349 349 347 347 351 353 351 349 351 351 349 348 344 349 348 356 355 354 354 354 351 351 352
340 341 343 349 350 351 350 354 352 349 349 352 353 353 353 353 353 349 351 349 347 350 351 350 350 352 351 350 349 349 350 350 347 349 349 350 358 356 355 354 354 353 352
340 342 345 347 348 349 349 348 347 347 348 351 352 353 356 355 354 353 352 353 353 350 350 350 349 351 346 346 346 348 353 350 350 348 349 349 353 359 357 357 355 355 354
339 345 346 350 347 348 348 348 348 350 353 350 354 352 348 350 353 354 353 352 353 353 352 350 348 346 346 347 344 344 348 351 352 353 353 352 351 352 356 358 356 355 354
342 345 345 346 345 347 349 347 348 351 349 353 354 352 350 351 354 353 355 354 355 354 351 352 348 345 345 347 349 350 348 348 352 354 353 355 352 352 351 358 358 355 355
343 342 339 345 344 347 350 349 350 348 350 351 352 351 354 353 351 356 355 356 354 352 351 351 349 349 348 346 350 350 348 348 350 350 352 356 354 353 352 352 353 352 357
342 342 340 345 345 349 346 343 346 345 346 347 353 355 353 348 355 356 355 356 354 352 352 351 350 347 347 348 343 342 344 348 349 350 348 350 352 353 353 352 353 351 353
340 341 342 348 347 349 346 345 348 347 350 351 353 357 357 359 359 358 356 355 353 352 352 350 349 345 348 348 339 337 330 338 346 348 347 350 350 351 354 354 353 353 352
340 342 345 349 349 349 350 351 353 351 350 347 352 355 355 358 360 357 358 355 354 352 352 352 351 346 343 347 345 337 330 328 336 343 347 348 350 349 351 352 352 351 350
340 343 346 352 350 347 352 352 347 343 342 345 346 349 357 360 356 360 356 357 352 352 352 352 353 351 347 343 349 352 344 340 331 330 341 347 346 347 346 347 348 350 349
343 345 346 354 351 349 352 353 355 347 349 350 353 356 358 356 355 360 356 353 349 354 350 353 351 350 351 349 346 347 345 342 340 334 330 336 341 343 345 347 348 346 341
345 347 348 352 351 353 353 354 353 348 346 348 356 356 357 356 354 359 356 354 351 354 349 348 348 350 346 348 347 344 339 336 334 337 333 334 334 339 343 342 344 345 338
Wind_Speed
2 2 10 14 14 13 14 15 14 16 16 15 14 15 16 16 16 16 15 16 15 15 15 16 15 15 15 15 16 16 18 17 17 18 16 14 13 12 18 19 17 14 18
5 3 11 13 14 12 14 14 14 15 14 15 14 14 15 15 17 16 15 16 16 15 15 15 15 15 13 13 13 15 15 16 15 16 16 16 16 18 18 20 18 14 17
5 7 9 13 13 12 13 13 13 15 15 14 15 13 14 14 15 15 16 14 14 16 14 14 13 13 12 12 11 12 12 14 14 12 13 6 8 16 18 18 17 17 16
5 9 8 13 13 13 11 13 11 14 14 14 14 12 12 12 12 14 14 14 13 13 11 13 13 12 10 10 11 10 10 12 9 6 4 4 10 14 16 16 17 16 16
4 7 12 14 12 13 12 13 11 12 13 14 13 12 11 10 12 12 13 12 12 11 10 12 12 11 9 7 8 9 9 11 10 5 5 4 6 11 16 16 16 16 15
5 11 14 16 15 13 11 12 12 12 12 12 12 11 11 9 10 10 10 10 10 10 9 9 9 10 8 6 6 6 7 5 15 5 5 8 5 14 14 16 15 15 15
13 9 11 13 14 14 12 11 10 12 12 10 12 10 11 9 9 8 9 8 8 8 8 8 8 8 6 5 5 6 8 11 7 5 5 7 5 13 15 15 15 14 13
14 11 9 14 13 12 12 12 11 11 10 9 9 10 9 7 7 8 7 9 7 7 6 7 7 7 4 2 4 6 9 9 10 7 5 6 10 12 13 14 13 13 12
13 12 9 8 11 14 12 11 10 11 9 8 7 9 9 7 7 8 7 7 6 5 5 5 5 5 3 1 3 5 6 13 5 4 7 3 11 13 11 12 12 12 13
13 12 11 8 6 6 6 12 12 10 8 9 8 8 9 9 8 7 7 7 8 7 6 5 3 2 1 1 3 3 5 10 7 4 4 5 11 13 12 10 12 11 12
12 12 11 12 11 8 6 8 10 12 10 8 8 9 6 3 4 7 8 11 10 8 7 7 6 5 4 7 7 5 2 2 4 3 3 12 13 13 13 11 10 12 11
15 14 13 11 11 10 8 7 6 6 4 4 5 6 4 4 5 8 10 13 10 8 7 8 8 7 3 3 2 7 4 4 1 4 3 14 13 14 13 12 10 10 12
14 11 14 11 10 10 7 6 3 3 3 4 6 6 5 4 5 0 3 1 1 6 2 4 5 2 5 3 0 2 5 4 3 4 5 11 12 14 14 11 10 10 10
14 12 12 14 13 10 5 5 5 4 5 3 5 6 4 2 1 3 3 4 4 4 6 2 3 5 5 5 5 6 8 4 1 2 7 11 10 10 13 12 9 8 8
16 13 11 12 11 9 6 6 6 7 4 5 4 6 4 2 2 2 4 3 8 2 9 6 5 5 6 5 5 5 8 4 4 3 2 13 11 7 9 11 10 9 7
17 16 13 13 12 8 5 3 4 4 6 6 4 5 6 6 3 2 5 3 3 8 7 6 4 5 5 4 5 5 5 4 4 4 3 5 11 9 6 8 12 12 11
19 12 15 9 8 8 5 4 2 1 3 4 4 6 2 7 5 5 4 4 6 5 6 2 4 3 2 1 1 1 5 4 4 5 4 4 5 11 9 11 9 13 13
13 17 13 10 8 7 5 3 2 3 1 4 4 3 4 1 2 4 4 3 4 4 3 3 4 3 3 3 2 2 3 3 4 4 2 3 4 4 8 11 9 12 14
15 17 13 12 11 9 6 4 3 4 2 4 5 3 2 2 5 5 1 3 5 3 3 3 2 3 2 2 4 4 3 4 6 2 6 7 6 5 4 10 8 8 13
13 11 9 10 9 8 6 4 3 2 4 4 4 4 5 5 5 1 2 3 5 4 3 3 3 3 3 4 2 3 3 4 6 6 5 4 5 5 5 5 4 4 9
12 10 8 10 8 7 3 3 2 3 3 1 5 9 7 4 4 4 1 2 4 5 3 4 3 3 1 3 4 3 3 3 5 5 4 3 5 6 6 6 4 4 4
13 10 9 11 8 8 5 3 2 2 2 2 4 5 6 7 6 4 4 5 5 4 3 3 3 1 1 3 3 4 2 4 3 3 4 4 5 5 4 6 6 6 4
16 14 11 10 9 7 7 3 2 2 2 0 2 3 4 5 4 5 5 3 5 4 3 2 2 4 2 2 2 5 3 2 1 1 5 4 6 4 4 5 6 5 6
16 15 13 13 10 8 7 3 5 5 4 4 4 3 5 5 4 5 5 3 4 3 3 3 3 2 3 0 2 3 1 6 4 1 2 3 4 6 6 5 4 7 6
19 17 15 13 13 8 8 6 4 5 4 2 3 6 5 4 5 5 4 5 4 3 3 5 2 3 2 2 1 1 2 1 3 4 2 0 3 2 3 9 9 6 5
18 17 16 14 15 11 9 8 7 6 5 1 2 5 4 3 4 6 5 4 4 4 4 3 3 3 3 2 1 1 1 3 2 3 3 2 4 2 1 3 6 7 7
Wind_Direction
258 326 119 111 108 98 97 90 86 88 89 88 86 85 87 91 93 92 90 90 91 90 90 89 87 90 90 91 93 98 99 102 107 105 100 96 103 119 117 108 106 104 106
146 125 113 117 115 111 100 93 94 95 90 94 89 92 96 98 96 96 93 97 96 92 88 88 88 86 88 90 92 99 106 109 112 106 98 96 95 98 101 105 104 108 112
141 115 116 118 117 110 106 100 95 97 95 98 95 101 103 101 100 102 103 101 102 97 94 93 94 94 92 94 92 94 102 103 117 80 100 93 94 98 103 106 107 106 110
162 120 123 116 119 115 111 105 100 99 100 99 106 108 107 109 107 97 98 101 105 105 102 92 98 98 96 90 88 88 87 97 91 109 93 62 100 105 107 106 107 110 110
149 138 131 125 125 119 119 111 109 105 107 107 105 112 111 116 108 105 105 103 103 100 103 97 97 101 93 78 76 85 100 116 123 116 87 66 104 117 111 109 113 113 111
165 125 133 137 130 126 126 116 116 113 108 107 108 114 124 131 117 109 103 105 102 99 98 100 102 98 92 82 67 76 84 63 142 143 93 113 122 125 114 109 109 112 113
126 117 129 137 137 133 130 129 126 127 121 124 122 123 124 129 122 124 122 120 117 115 118 112 112 100 92 82 69 57 50 113 153 131 122 113 111 113 112 116 116 115 115
124 131 139 139 137 137 142 137 138 126 132 132 129 127 118 132 139 137 145 140 139 141 143 136 122 115 109 72 33 58 61 70 136 131 115 123 125 116 118 119 120 118 117
135 138 138 148 150 152 142 139 136 132 141 137 143 138 141 159 173 168 168 153 160 166 168 152 154 145 144 123 10 19 58 84 89 111 118 110 120 119 116 121 120 116 121
141 147 160 157 146 149 151 155 148 145 153 162 162 168 171 190 200 194 189 186 188 193 191 189 203 198 194 333 333 356 54 110 102 110 106 122 122 123 118 118 118 118 122
153 162 160 166 166 159 164 171 166 159 183 191 195 202 200 203 234 222 205 210 205 210 207 204 197 216 211 43 1 330 13 297 141 127 142 131 131 124 121 121 121 121 125
160 172 170 174 167 162 168 169 182 181 195 201 214 216 209 222 225 216 218 220 205 216 230 227 217 209 170 67 82 5 338 230 189 116 191 145 136 130 121 116 107 125 128
171 174 172 169 168 173 167 170 187 186 186 219 224 225 203 234 232 325 28 22 138 226 217 277 227 256 128 183 333 240 212 170 175 136 179 161 161 149 144 134 125 114 131
170 185 170 167 171 183 156 171 193 189 191 200 223 218 196 142 158 105 206 187 42 3 303 284 263 199 171 221 189 193 204 180 144 126 168 181 186 162 153 160 147 134 119
170 186 185 150 165 180 178 183 190 189 183 199 203 204 136 124 87 358 23 51 110 171 266 250 225 180 176 199 160 166 179 172 184 151 167 196 204 199 153 161 168 167 157
171 184 189 147 165 170 185 202 200 173 214 202 182 189 193 153 167 202 83 118 215 198 242 231 208 169 160 163 142 160 189 172 168 152 158 214 208 198 158 170 180 181 184
169 142 146 138 137 145 142 84 344 142 133 134 186 181 73 146 185 193 129 214 241 207 217 193 100 110 139 189 193 174 166 171 173 186 197 195 207 200 201 192 173 188 192
137 139 146 150 138 134 125 147 262 4 173 182 97 115 21 343 22 256 199 219 212 207 169 145 136 146 182 202 193 248 172 128 186 197 188 191 182 192 213 198 182 177 185
133 147 159 150 150 154 160 181 225 257 285 151 153 166 190 279 257 286 184 210 125 152 122 135 136 146 159 181 194 196 145 111 93 164 232 242 180 194 182 200 188 177 190
131 145 141 147 154 149 154 179 222 183 220 165 163 154 199 202 210 251 317 77 133 122 128 140 150 185 172 182 223 151 158 150 167 199 187 228 174 204 163 176 172 184 203
135 129 144 121 147 137 150 164 230 202 196 262 161 183 192 195 198 177 60 87 137 130 142 167 166 149 220 181 96 54 25 30 158 174 187 218 181 187 168 167 166 175 208
147 142 141 137 154 152 164 203 142 168 205 221 177 192 177 159 172 141 127 120 141 125 114 108 101 99 78 175 137 114 82 351 35 167 203 198 191 182 162 175 170 179 195
153 157 150 152 159 161 173 201 179 94 47 26 196 186 169 171 165 147 135 144 146 148 148 133 139 128 142 274 179 138 92 164 125 299 209 181 158 168 179 162 173 155 134
163 161 157 155 161 178 185 183 184 180 180 203 193 178 177 176 149 168 157 160 134 143 148 157 165 149 114 49 308 243 199 145 150 99 334 177 160 167 149 157 142 133 136
160 167 167 159 166 177 180 200 207 186 199 235 185 146 157 165 175 150 155 151 129 145 169 163 136 101 91 129 83 319 237 146 124 132 180 170 30 207 172 155 153 141 141
166 165 166 166 176 175 180 194 207 215 220 166 186 161 160 187 189 169 167 163 158 152 168 157 156 112 124 74 96 59 85 161 178 156 132 167 149 255 151 139 151 154 148